This is the latest recevied weather packets stored in our database for station/object K0VSC-1. If no packets are shown the sender has not sent any weather packets the latest 10 day(s).
| Time | Temp. | Humidity | Pressure | Rain* | Wind** | Luminosity | Snow |
|---|---|---|---|---|---|---|---|
| 1777649296 | 6.11° C | 56% | 1020.7 hPa | 0 mm | - | 673 W/m² | - |
| 1777648996 | 6.11° C | 53% | 1020.6 hPa | 0 mm | - | 652 W/m² | - |
| 1777648696 | 6.11° C | 53% | 1020.6 hPa | 0 mm | - | 642 W/m² | - |
| 1777648396 | 6.11° C | 55% | 1020.6 hPa | 0 mm | - | 640 W/m² | - |
| 1777648096 | 5.56° C | 54% | 1020.6 hPa | 0 mm | - | 668 W/m² | - |
| 1777647796 | 5.56° C | 55% | 1020.5 hPa | 0 mm | - | 657 W/m² | - |
| 1777647496 | 5° C | 55% | 1020.5 hPa | 0 mm | - | 394 W/m² | - |
| 1777647196 | 5° C | 56% | 1020.5 hPa | 0 mm | - | 610 W/m² | - |
| 1777646896 | 5° C | 58% | 1020.6 hPa | 0 mm | - | 570 W/m² | - |
| 1777646596 | 5° C | 57% | 1020.5 hPa | 0 mm | - | 438 W/m² | - |
| 1777646296 | 5° C | 55% | 1020.5 hPa | 0 mm | - | 279 W/m² | - |
| 1777645996 | 4.44° C | 55% | 1020.6 hPa | 0 mm | - | 575 W/m² | - |
| 1777645696 | 4.44° C | 57% | 1020.7 hPa | 0 mm | - | 438 W/m² | - |
| 1777645396 | 4.44° C | 60% | 1020.6 hPa | 0 mm | - | 536 W/m² | - |
| 1777645096 | 4.44° C | 60% | 1020.4 hPa | 0 mm | - | 506 W/m² | - |
| 1777644796 | 4.44° C | 59% | 1020.5 hPa | 0 mm | - | 482 W/m² | - |
| 1777644496 | 4.44° C | 59% | 1020.4 hPa | 0 mm | - | 464 W/m² | - |
| 1777644196 | 3.89° C | 60% | 1020.5 hPa | 0 mm | - | 448 W/m² | - |
| 1777643896 | 3.89° C | 64% | 1020.4 hPa | 0 mm | - | 434 W/m² | - |
| 1777643596 | 3.89° C | 61% | 1020.5 hPa | 0 mm | - | 420 W/m² | - |
| 1777643296 | 3.33° C | 61% | 1020.5 hPa | 0 mm | - | 417 W/m² | - |
| 1777642996 | 3.33° C | 61% | 1020.5 hPa | 0 mm | - | 404 W/m² | - |
| 1777642696 | 3.33° C | 65% | 1020.5 hPa | 0 mm | - | 313 W/m² | - |
| 1777642396 | 3.33° C | 66% | 1020.4 hPa | 0 mm | - | 221 W/m² | - |
| 1777642096 | 2.78° C | 67% | 1020.5 hPa | 0 mm | - | 250 W/m² | - |
* Rain latest hour (hover to see other rain measurements)
** Current wind speed in m/s (hover to see current wind gust speed)